User: anonymous   Login
Location: Unspecified
(0.0000°N, 0.0000°E)
Time: 00:13:27
(UTC+00:00)
Language:

BEIDOU 3M22 - Orbit

View from above orbital plane
View from above orbital plane
View from above satellite
View from above satellite

Ground track
Ground track

The orbit is defined by the following mean orbital elements,

1 44794U          26144.05897169 +.00000000 +00000-0 +00000-0 0 00003
2 44794  53.9315 300.6372 0004812  48.4717 311.5477  1.86227499    09
Epoch (UTC): 24 May 2026 01:24:55
Eccentricity: 0.0004812
inclination: 53.9315°
perigee height: 21515 km
apogee height: 21542 km
right ascension of ascending node: 300.6372°
argument of perigee: 48.4717°
revolutions per day: 1.86227499
mean anomaly at epoch: 311.5477°

The dashed part of the orbit path shows where the satellite is in the earth's shadow,  

DLR